Weather History for South Haven, MI

Change the Weather History Date:

Tuesday, April 30, 2013

  Actual Average (KBIV) Record (KBIV)
Temperature  
Mean Temperature 70 °F 54 °F  
Max Temperature 80 °F 64 °F 83 °F (1962)
Min Temperature 59 °F 44 °F 27 °F (1969)
Degree Days  
Heating Degree Days 0 12  
Month to date heating degree days 505  
Since 1 July heating degree days 5879  
Cooling Degree Days 4 0  
Month to date cooling degree days 4  
Year to date cooling degree days 4  
Growing Degree Days 20 (Base 50)    
Moisture  
Dew Point 54 °F    
Average Humidity 61    
Maximum Humidity 77    
Minimum Humidity 43    
Precipitation  
Precipitation 0.00 in 0.17 in 2.58 in (1963)
Month to date precipitation 3.25  
Year to date precipitation 9.41  
Sea Level Pressure  
Sea Level Pressure 29.88 in    
Wind  
Wind Speed 10 mph (SSE)    
Max Wind Speed 17 mph    
Max Gust Speed 30 mph    
Visibility 10 miles    
Events      
T = Trace of Precipitation, MM = Missing Value Source: NWS Daily Summary

Daily Weather History Graph

Daily Weather History Graph

Search for Another Location

Airport:

Trip Planner

Search our weather history database for the weather conditions in past years. The results will help you decide how hot, cold, wet, or windy it might be!

Date:

Astronomy

Apr. 30, 2013 Rise Set
Actual Time 6:41 AM EDT 8:43 PM EDT
Civil Twilight 6:10 AM EDT 9:14 PM EDT
Nautical Twilight 5:33 AM EDT 9:52 PM EDT
Astronomical Twilight 4:52 AM EDT 10:33 PM EDT
Moon 1:07 AM EDT (4/30) 11:08 AM EDT (4/30)
Length of Visible Light 15h 03m
Length of Day
14h 02m
Waning Gibbous, 70% of the Moon is Illuminated
Apr 30
Waning Gibbous
May 2
Last Quarter
May 9
New
May 18
First Quarter
May 25
Full

Hourly Weather History & Observations

Time (EDT) Temp. Heat Index Dew Point Humidity Pressure Visibility Wind Dir Wind Speed Gust Speed Precip Events Conditions
12:15 AM 62.6 °F - 52.0 °F 68% 29.87 in 10.0 mi SSE 5.8 mph - N/A   Scattered Clouds
12:35 AM 62.4 °F - 52.0 °F 69% 29.88 in 10.0 mi South 8.1 mph - N/A   Scattered Clouds
12:55 AM 62.1 °F - 51.8 °F 69% 29.86 in 10.0 mi SSE 9.2 mph - N/A   Scattered Clouds
1:16 AM 61.7 °F - 51.8 °F 70% 29.87 in 10.0 mi South 9.2 mph - N/A   Clear
1:35 AM 61.2 °F - 51.6 °F 71% 29.88 in 10.0 mi South 8.1 mph - N/A   Clear
1:55 AM 60.8 °F - 51.6 °F 72% 29.87 in 10.0 mi SSE 6.9 mph - N/A   Scattered Clouds
2:15 AM 60.8 °F - 51.6 °F 72% 29.87 in 10.0 mi South 6.9 mph - N/A   Mostly Cloudy
2:35 AM 60.8 °F - 51.4 °F 71% 29.87 in 10.0 mi SSE 6.9 mph - N/A   Overcast
2:55 AM 60.8 °F - 51.3 °F 71% 29.86 in 10.0 mi SSE 8.1 mph 16.1 mph N/A   Overcast
3:15 AM 60.8 °F - 51.3 °F 71% 29.86 in 10.0 mi SSE 9.2 mph - N/A   Overcast
3:35 AM 60.4 °F - 51.3 °F 72% 29.85 in 10.0 mi South 10.4 mph - N/A   Mostly Cloudy
3:55 AM 60.6 °F - 51.3 °F 71% 29.86 in 10.0 mi South 11.5 mph 16.1 mph N/A   Scattered Clouds
4:15 AM 59.9 °F - 51.3 °F 73% 29.86 in 10.0 mi South 8.1 mph 16.1 mph N/A   Scattered Clouds
4:35 AM 59.9 °F - 51.3 °F 73% 29.86 in 10.0 mi South 8.1 mph - N/A   Mostly Cloudy
4:55 AM 59.9 °F - 51.1 °F 73% 29.86 in 10.0 mi South 10.4 mph - N/A   Mostly Cloudy
5:16 AM 59.9 °F - 50.9 °F 72% 29.86 in 10.0 mi South 8.1 mph - N/A   Scattered Clouds
5:35 AM 59.9 °F - 51.1 °F 73% 29.86 in 10.0 mi SSE 6.9 mph - N/A   Mostly Cloudy
5:55 AM 59.9 °F - 50.9 °F 72% 29.85 in 10.0 mi SSE 9.2 mph - N/A   Overcast
6:15 AM 59.4 °F - 50.9 °F 74% 29.85 in 10.0 mi South 9.2 mph - N/A   Mostly Cloudy
6:35 AM 59.4 °F - 50.7 °F 73% 29.84 in 10.0 mi SSE 9.2 mph - N/A   Mostly Cloudy
6:56 AM 59.9 °F - 50.7 °F 72% 29.85 in 10.0 mi SSE 8.1 mph - N/A   Overcast
7:15 AM 59.9 °F - 51.3 °F 73% 29.84 in 10.0 mi South 13.8 mph 20.7 mph N/A   Overcast
7:35 AM 60.3 °F - 52.0 °F 74% 29.85 in 10.0 mi South 11.5 mph 20.7 mph N/A   Overcast
7:55 AM 59.9 °F - 52.7 °F 77% 29.85 in 10.0 mi South 10.4 mph - N/A   Overcast
8:15 AM 60.3 °F - 52.3 °F 75% 29.86 in 10.0 mi SSE 13.8 mph 19.6 mph N/A   Overcast
8:35 AM 61.3 °F - 52.3 °F 72% 29.86 in 10.0 mi South 13.8 mph 29.9 mph N/A   Overcast
8:55 AM 61.2 °F - 52.3 °F 73% 29.88 in 10.0 mi South 11.5 mph 18.4 mph N/A   Mostly Cloudy
9:15 AM 62.8 °F - 52.9 °F 70% 29.88 in 10.0 mi South 11.5 mph 20.7 mph N/A   Mostly Cloudy
9:35 AM 63.9 °F - 53.1 °F 68% 29.88 in 10.0 mi South 11.5 mph 17.3 mph N/A   Mostly Cloudy
9:55 AM 65.3 °F - 54.0 °F 67% 29.88 in 10.0 mi South 9.2 mph 16.1 mph N/A   Scattered Clouds
10:15 AM 66.4 °F - 54.1 °F 65% 29.89 in 10.0 mi South 8.1 mph 18.4 mph N/A   Scattered Clouds
10:35 AM 66.7 °F - 54.1 °F 64% 29.89 in 10.0 mi SSE 9.2 mph 16.1 mph N/A   Scattered Clouds
10:55 AM 66.9 °F - 54.3 °F 64% 29.90 in 10.0 mi SSE 11.5 mph - N/A   Clear
11:16 AM 67.3 °F - 54.7 °F 64% 29.89 in 10.0 mi South 9.2 mph - N/A   Clear
11:35 AM 67.5 °F - 54.5 °F 63% 29.90 in 10.0 mi SSE 11.5 mph 17.3 mph N/A   Clear
11:56 AM 69.3 °F - 55.0 °F 60% 29.90 in 10.0 mi South 15.0 mph - N/A   Clear
12:15 PM 70.0 °F - 54.9 °F 59% 29.89 in 10.0 mi SSE 10.4 mph 20.7 mph N/A   Clear
12:35 PM 70.7 °F - 55.6 °F 59% 29.89 in 10.0 mi South 11.5 mph - N/A   Clear
12:55 PM 72.1 °F - 55.6 °F 56% 29.89 in 10.0 mi SSE 9.2 mph 21.9 mph N/A   Clear
1:15 PM 73.4 °F - 55.9 °F 54% 29.89 in 10.0 mi SSE 12.7 mph 19.6 mph N/A   Clear
1:35 PM 74.3 °F - 55.9 °F 53% 29.88 in 10.0 mi South 13.8 mph 23.0 mph N/A   Clear
1:55 PM 75.4 °F - 56.3 °F 51% 29.88 in 10.0 mi SSE 13.8 mph 23.0 mph N/A   Clear
2:15 PM 76.3 °F - 56.3 °F 50% 29.87 in 10.0 mi SSE 13.8 mph 20.7 mph N/A   Clear
2:35 PM 77.0 °F - 56.3 °F 49% 29.88 in 10.0 mi SSE 17.3 mph 23.0 mph N/A   Clear
2:56 PM 77.9 °F - 55.9 °F 47% 29.88 in 10.0 mi South 11.5 mph 17.3 mph N/A   Clear
3:15 PM 77.9 °F - 56.1 °F 47% 29.88 in 10.0 mi SSE 13.8 mph 20.7 mph N/A   Clear
3:35 PM 78.6 °F - 55.9 °F 46% 29.88 in 10.0 mi South 12.7 mph 26.5 mph N/A   Clear
3:55 PM 79.9 °F - 55.8 °F 43% 29.87 in 10.0 mi SSE 10.4 mph 21.9 mph N/A   Clear
4:15 PM 80.2 °F 80.4 °F 55.9 °F 43% 29.87 in 10.0 mi SSE 17.3 mph 21.9 mph N/A   Clear
4:35 PM 79.7 °F - 56.7 °F 45% 29.87 in 10.0 mi South 13.8 mph 24.2 mph N/A   Clear
4:56 PM 80.1 °F 80.4 °F 56.8 °F 45% 29.86 in 10.0 mi SSE 11.5 mph 21.9 mph N/A   Clear
5:15 PM 80.6 °F 80.6 °F 56.5 °F 43% 29.87 in 10.0 mi SSE 16.1 mph 21.9 mph N/A   Clear
5:35 PM 80.6 °F 80.6 °F 56.1 °F 43% 29.86 in 10.0 mi SSE 16.1 mph 24.2 mph N/A   Clear
5:55 PM 80.6 °F 80.6 °F 56.1 °F 43% 29.87 in 10.0 mi SSE 16.1 mph 21.9 mph N/A   Clear
6:15 PM 80.4 °F 80.5 °F 56.3 °F 43% 29.87 in 10.0 mi SSE 17.3 mph 25.3 mph N/A   Clear
6:36 PM 80.1 °F 80.3 °F 56.3 °F 44% 29.88 in 10.0 mi SSE 16.1 mph 19.6 mph N/A   Clear
6:55 PM 79.7 °F - 56.1 °F 44% 29.89 in 10.0 mi South 16.1 mph 19.6 mph N/A   Clear
7:15 PM 79.7 °F - 56.3 °F 44% 29.89 in 10.0 mi South 11.5 mph 18.4 mph N/A   Clear
7:35 PM 79.2 °F - 56.8 °F 46% 29.90 in 10.0 mi South 10.4 mph 16.1 mph N/A   Clear
7:55 PM 78.3 °F - 56.8 °F 48% 29.90 in 10.0 mi South 12.7 mph 19.6 mph N/A   Clear
8:15 PM 77.5 °F - 56.8 °F 49% 29.91 in 10.0 mi South 9.2 mph 16.1 mph N/A   Clear
8:35 PM 76.5 °F - 57.2 °F 51% 29.92 in 10.0 mi SSE 8.1 mph 16.1 mph N/A   Clear
8:55 PM 75.7 °F - 57.7 °F 53% 29.92 in 10.0 mi SSE 10.4 mph - N/A   Clear
9:16 PM 74.7 °F - 58.5 °F 57% 29.94 in 10.0 mi South 8.1 mph - N/A   Clear
9:35 PM 74.5 °F - 58.5 °F 57% 29.94 in 10.0 mi South 9.2 mph - N/A   Clear
9:55 PM 73.9 °F - 58.6 °F 59% 29.95 in 10.0 mi South 10.4 mph - N/A   Clear
10:15 PM 73.4 °F - 58.5 °F 59% 29.97 in 10.0 mi South 5.8 mph - N/A   Clear
10:35 PM 72.7 °F - 58.6 °F 61% 29.97 in 10.0 mi South 6.9 mph - N/A   Clear
10:55 PM 72.1 °F - 58.5 °F 62% 29.97 in 10.0 mi SSE 5.8 mph - N/A   Clear
11:15 PM 71.6 °F - 58.3 °F 63% 29.97 in 10.0 mi South 9.2 mph - N/A   Clear
11:35 PM 70.7 °F - 58.3 °F 65% 29.97 in 10.0 mi South 9.2 mph - N/A   Clear